Location: Broekland
(52.3610°N, 6.2005°E)
Time: 20:03:16
(UTC+00:00)

Cosmos 2322 Rocket - Pass Details

Date: 19 May 2025
Orbit: 832 x 849 km, 71.0° (Epoch: 20 June)

Event Time Altitude Azimuth Distance (km) Brightness Sun altitude
Rises 22:48:29 0° 329° (NNW) 3,419 6.7 -17.0°
Reaches altitude 10° 22:50:58 10° 330° (NNW) 2,477 5.7 -17.1°
Maximum altitude 22:56:40 80° 57° (ENE) 861 2.2 -17.3°
Enters shadow 23:00:06 25° 143° (SE) 1,647 3.2 -17.3°
